Weather History for Taiz, Yemen

Change the Weather History Date:

Thursday, February 14, 2013

  Actual Average Record
Temperature  
Mean Temperature 68 °F -  
Max Temperature 81 °F 76 °F 81 °F (2013)
Min Temperature 54 °F 63 °F 53 °F (2012)
Cooling Degree Days 2    
Growing Degree Days 18 (Base 50)    
Moisture  
Dew Point 52 °F    
Average Humidity 65    
Maximum Humidity 94    
Minimum Humidity 28    
Precipitation  
Precipitation 0.00 in - - ()
Sea Level Pressure  
Sea Level Pressure 29.92 in    
Wind  
Wind Speed 6 mph ()    
Max Wind Speed 16 mph    
Max Gust Speed -    
Visibility 6.0 miles    
Events      
Averages and records for this station are not official NWS values.
T = Trace of Precipitation, MM = Missing Value Source: Averaged Metar Reports

Daily Weather History Graph

Daily Weather History Graph

Search for Another Location

Airport:

Trip Planner

Search our weather history database for the weather conditions in past years. The results will help you decide how hot, cold, wet, or windy it might be!

Date:

Astronomy

Feb. 14, 2013 Rise Set
Actual Time 6:26 AM AST 6:08 PM AST
Civil Twilight 6:05 AM AST 6:30 PM AST
Nautical Twilight 5:40 AM AST 6:55 PM AST
Astronomical Twilight 5:14 AM AST 7:20 PM AST
Moon 9:09 AM AST (2/14) 9:51 PM AST (2/14)
Length of Visible Light 12h 25m
Length of Day
11h 41m
Waxing Crescent, 18% of the Moon is Illuminated
Feb 14
Waxing Crescent
Feb 17
First Quarter
Feb 25
Full
Mar 5
Last Quarter
Mar 11
New

Hourly Weather History & Observations

Time (AST) Temp. Dew Point Humidity Pressure Visibility Wind Dir Wind Speed Gust Speed Precip Events Conditions
12:00 AM 59.0 °F 55.4 °F 88% 29.92 in 5.0 mi SSE 4.6 mph - N/A   Partly Cloudy
1:00 AM 59.0 °F 57.2 °F 94% 29.89 in 5.0 mi NNW 4.6 mph - N/A   Partly Cloudy
2:00 AM 60.8 °F 57.2 °F 88% 29.89 in - North 3.5 mph - N/A   Clear
3:00 AM 57.2 °F 53.6 °F 88% 29.86 in - North 3.5 mph - N/A   Clear
4:00 AM 57.2 °F 53.6 °F 88% 29.86 in - North 3.5 mph - N/A   Clear
5:00 AM 51.8 °F 50.0 °F 94% 29.89 in - North 4.6 mph - N/A   Clear
6:00 AM 50.0 °F 46.4 °F 87% 29.89 in - NNE 4.6 mph - N/A   Clear
7:00 AM 55.4 °F 50.0 °F 82% 29.92 in - NE 6.9 mph - N/A   Clear
8:00 AM 64.4 °F 55.4 °F 73% 29.95 in - ESE 4.6 mph - N/A   Clear
9:00 AM 69 °F 56 °F 54%  in 6 mi South 6.9 mph - -   Scattered Clouds
9:00 AM 69.8 °F 55.4 °F 60% 29.98 in 6.2 mi South 6.9 mph - N/A   Partly Cloudy
10:00 AM 73.4 °F 57.2 °F 57% 29.98 in 6.2 mi South 9.2 mph - N/A   Partly Cloudy
11:00 AM 73.4 °F 50.0 °F 44% 29.98 in 6.2 mi South 11.5 mph - N/A   Partly Cloudy
12:00 PM 78.8 °F 50.0 °F 36% 29.95 in 6.2 mi South 13.8 mph - N/A   Partly Cloudy
1:00 PM 80.6 °F 46.4 °F 30% 29.92 in 6.2 mi South 13.8 mph - N/A   Partly Cloudy
2:00 PM 78.8 °F 42.8 °F 28% 29.89 in 6.2 mi South 11.5 mph - N/A   Partly Cloudy
3:00 PM 78.8 °F 42.8 °F 28% 29.89 in 6.2 mi SSW 16.1 mph - N/A   Scattered Clouds
4:00 PM 78.8 °F 44.6 °F 30% 29.89 in 6.2 mi SSW 9.2 mph - N/A   Scattered Clouds
5:00 PM 77.0 °F 44.6 °F 32% 29.89 in 6.2 mi South 9.2 mph - N/A   Scattered Clouds
6:00 PM 71.6 °F 53.6 °F 53% 29.92 in 6.2 mi SSW 11.5 mph - N/A   Unknown
7:00 PM 66.2 °F 55.4 °F 68% 29.92 in 6.2 mi South 8.1 mph - N/A   Partly Cloudy
8:00 PM 64.4 °F 57.2 °F 77% 29.95 in - South 6.9 mph - N/A   Clear
9:00 PM 63 °F 56 °F 73%  in 6 mi South 4.6 mph - -   Scattered Clouds
9:00 PM 62.6 °F 57.2 °F 82% 29.98 in - South 4.6 mph - N/A   Clear
10:00 PM 62.6 °F 57.2 °F 82% 29.98 in - Variable 2.3 mph - N/A   Clear
11:00 PM 60.8 °F 55.4 °F 82% 29.98 in - Calm Calm - N/A   Clear